Retour au catalogue

STARLINK-1422

ActifCommunicationsVLEO
NORAD 45696·PAYLOAD·🇺🇸 United States

Lancé Jun 4, 2020 depuis Cape Canaveral Space Force Station

Loading…

Prochains Passages (prochaines 24 heures)

TLE

FraisSource: CelesTrak SupGP

Époque: Sep 15, 2026, 02:20 UTC

1 45696C 20035AR  26258.09770833  .00021956  00000+0  44819-3 0  2589
2 45696  53.1511 241.1677 0005868  44.3282 202.2306 15.45567213    11

Suivez STARLINK-1422 en temps réel avec AllMySat

Download on the App Store